Location: Newark
(48.5178°N, 4.2361°E)
Time: 05:35:48
(UTC+00:00)

ISS - Pass Details

Date: 25 January 2021
Orbit: 417 x 422 km, 51.6° (Epoch: 08 March)

Event Time Altitude Azimuth Distance (km) Brightness Sun altitude
Rises 18:32:45 0° 270° (W) 2,372 1.7 -20.0°
Reaches altitude 10° 18:34:54 10° 276° (W) 1,509 0.2 -20.4°
Enters shadow 18:38:02 49° 341° (NNW) 553 -3.2 -20.9°
